Dati Storici

Data ora Umidita' aria (%) Temperatura aria (°C) Rad globale (W/m²) Gonioanemometro (°) Tacoanemometro (m/s) Pioggia (mm)
24-06-2020 02:10 66.5 % 24.027 62.368 1.823 0 0
24-06-2020 02:00 67.6 % 24.025 110.733 1.188 0 0
24-06-2020 01:50 71.3 % 24.146 117.712 0.864 0 0
24-06-2020 01:40 78.6 % 24.064 109.845 3.195 0 0
24-06-2020 01:30 82.1 % 23.652 160.703 -0.01 0 0
24-06-2020 01:20 82.2 % 23.539 126.384 0.513 0 0
24-06-2020 01:10 82 % 23.082 58.867 -0.014 0 0
24-06-2020 01:00 80 % 23.117 55.131 -0.014 0 0
24-06-2020 00:50 79 % 23.282 5.724 -0.013 0 0
24-06-2020 00:40 76.8 % 23.652 49.176 0.785 0 0
24-06-2020 00:30 74.4 % 24.2 14.587 0.416 0 0
24-06-2020 00:20 72.7 % 24.325 48.666 -0.018 0 0
24-06-2020 00:10 71.6 % 24.477 68.24 -0.008 0 0
24-06-2020 00:00 71.7 % 24.406 332.248 -0.008 0 0
23-06-2020 23:50 71.4 % 24.453 62.978 -0.008 0 0
23-06-2020 23:40 72.7 % 24.442 96.454 -0.007 0 0
23-06-2020 23:30 74.2 % 24.417 79.733 -0.008 0 0
23-06-2020 23:20 73.2 % 24.803 198.132 -0.009 0 0
23-06-2020 23:10 71 % 25.125 125.357 0.836 0 0
23-06-2020 23:00 64 % 25.167 103.963 -0.01 0 0

I dati sono presentati in modo automatico a scopo informativo. In seguito a verifica i dati possono subire modifiche o essere invalidati e non riportati negli archivi definitivi.